Regional Weather Roundup
Issued by NWS

Home | Current Version | Previous Version | Graphics & Text | Print | Product List | Glossary On
Versions: 1 2 3 4 5 6 7 8 9 10 11 12 13 14 15 16 17 18 19 20 21 22 23 24 25 26 27 28 29 30 31 32 33 34 35 36 37 38 39 40 41 42 43 44 45 46 47 48 49 50
000
ASUS43 KDTX 190301
RWRMI
MICHIGAN HOURLY REGIONAL WEATHER ROUNDUP
NATIONAL WEATHER SERVICE DETROIT/PONTIAC MI
1100 PM EDT MON SEP 18 2017

NOTE: "FAIR" INDICATES FEW OR NO CLOUDS BELOW 12,000 FEET WITH NO
SIGNIFICANT WEATHER AND/OR OBSTRUCTION TO VISIBILITY.

MIZ047>049-052>055-059>063-066>070-074>076-081>083-190400-
SOUTHEAST LOWER MICHIGAN

CITY           SKY/WX    TMP DP  RH WIND       PRES   REMARKS
ADRIAN         CLOUDY    67  63  87 SE8       30.06S
ALMA           PTCLDY    59  52  78 SW3       30.07S
ANN ARBOR      CLOUDY    66  61  84 NE7       30.05S
BAD AXE        CLEAR     52  50  93 CALM      30.09S
CARO           PTCLDY    58  53  84 CALM      30.07S
DETROIT CITY   CLOUDY    64  59  83 NE5       30.06F
DETROIT        CLOUDY    67  60  78 NE6       30.06S
FLINT          PTCLDY    60  55  83 E6        30.08R
GROSSE ILE     CLOUDY    64  63  94 NE7       30.04S
HILLSDALE      CLOUDY    66  64  94 E6        30.04S FOG
HOWELL         CLEAR     61  60  96 E3        30.07R

CITY           SKY/WX    TMP DP  RH WIND       PRES   REMARKS
JACKSON        MOCLDY    67  63  87 E9        30.05S FOG
LAMBERTVILLE   CLOUDY    67  64  91 NE5       30.04S FOG
LANSING        CLEAR     61  54  77 E5        30.06F
LAPEER         FAIR      58  54  89 E7        30.08S
MASON          CLEAR     64  61  89 CALM      30.06S
MONROE         CLOUDY    65  62  91 NE6       30.04S
MT. CLEMENS    CLOUDY    62  62  98 N5        30.05S
PONTIAC        PTCLDY    60  56  86 NE5       30.06F
PORT HOPE        N/A     55  53  93 CALM      30.07F
PORT HURON     PTCLDY    63  59  88 CALM      30.07S
TRI CITIES     CLOUDY    60  57  89 E6        30.08S
MIDLAND        FAIR      60  57  90 E5        30.07S
TROY           MOCLDY    64  57  78 NE5       30.08F
SAGINAW HB     CLOUDY    55  54  94 E3        30.07S
$$
MIZ043>046-050>051-056>058-064>065-071>073-077>080-190400-
SOUTHWEST LOWER MICHIGAN

CITY           SKY/WX    TMP DP  RH WIND       PRES   REMARKS
BATTLE CREEK   CLEAR     66  57  72 E6        30.04F
BENTON HARBOR    N/A     60  57  89 CALM      30.02R
BIG RAPIDS     PTCLDY    56  51  85 CALM      30.06S
COLDWATER      PTCLDY    63  58  84 CALM      30.04R
FREMONT        FAIR      64  52  64 E5        30.03S
HOLLAND        CLEAR     58  56  93 CALM      30.03S
GRAND RAPIDS   PTCLDY    63  56  78 E7        30.04S
IONIA          FAIR      63  54  72 E7        30.05S
KALAMAZOO      PTCLDY    62  51  67 CALM      30.04S
LUDINGTON      CLEAR     56  52  85 CALM      30.03S
MARSHALL       CLEAR     62  60  94 CALM      30.04S
MOUNT PLEASANT PTCLDY    61  58  88 E5        30.06F
MUSKEGON       PTCLDY    62  55  77 E5        30.03R
SOUTH HAVEN    PTCLDY    61  60  94 CALM      30.02S
$$
MIZ016>042-190400-
NORTHERN LOWER MICHIGAN

CITY           SKY/WX    TMP DP  RH WIND       PRES   REMARKS
ALPENA         CLEAR     49  48  97 CALM      30.09F
BEAVER ISLAND  CLEAR     50  49  96 CALM      30.08S
BELLAIRE       CLEAR     49  46  92 CALM      30.08S
CADILLAC       CLOUDY    55  51  86 CALM      30.07F
CHARLEVOIX     MOCLDY    55  53  94 SE3       30.11R
FRANKFORT      CLEAR     60  51  71 E6        30.05F
GAYLORD        CLEAR     55  46  71 CALM      30.09F
GRAYLING       CLEAR     51  49  93 CALM      30.10S
HARBOR SPRINGS CLEAR     53  51  94 NE3       30.08S
HOUGHTON LAKE  CLOUDY    54  51  90 E3        30.10R
MANISTEE       CLEAR     57  51  80 E7        30.04F
OSCODA         CLEAR     51  49  94 W8        30.07F
PELLSTON       CLEAR     48  47  96 CALM      30.09F
ROGERS CITY    CLEAR     50  48  92 SW3       30.10F
TRAVERSE CITY  PTCLDY    53  49  86 CALM      30.06S
$$
MIZ007>008-015-190400-
EASTERN UPPER MICHIGAN

CITY           SKY/WX    TMP DP  RH WIND       PRES   REMARKS
KINROSS        PTCLDY    53  50  89 NE6       30.09F
MACKINAC ISLAN PTCLDY    57  51  81 NE8       30.08F
NEWBERRY       CLOUDY    54  53  97 CALM      30.09S
S. S. MARIE    PTCLDY    54  50  86 CALM      30.09F
MUNISING         N/A     57  53  86 CALM      30.08F
$$
MIZ004>006-011>014-085-190400-
CENTRAL UPPER MICHIGAN

CITY           SKY/WX    TMP DP  RH WIND       PRES   REMARKS
MANISTIQUE     CLOUDY    52  47  81 CALM      30.08S
ESCANABA       CLOUDY    58  53  84 NW3       30.07R
MENOMINEE      PTCLDY    61  50  67 E5        30.05F
SAWYER-GWINN   LGT RAIN  57  52  84 SE3       30.08F
$$
MIZ001>003-009>011-084-190400-
WESTERN UPPER MICHIGAN

CITY           SKY/WX    TMP DP  RH WIND       PRES   REMARKS
IRON MOUNTAIN  LGT RAIN  57  51  80 SE5       30.05F
HOUGHTON       LGT RAIN  56  54  93 E5        30.07R
COPPER HARBOR    N/A     56  53  90 CALM      30.06F
IRONWOOD       CLOUDY    54  53  97 E6        30.05F
$$

ABBREVIATIONS USED IN REMARKS
   TC - TEMPERATURE IN CELSIUS
  WCI - WIND CHILL INDEX
   HX - HEAT INDEX
  VSB - VISIBILITY





USA.gov is the U.S. government's official web portal to all federal, state and local government web resources and services.